Flag for Colombia Weather past 2 weeks in San Andrés, Colombia

Now
77 °F

Thunderstorms. Overcast.


Feels Like: 78 °F
Forecast: 80 / 83 °F
Wind: 2 mph from North

Location: San Andres Isla / Sesquicentenario

Current Time: Sep 17, 2014 at 7:19:31 AM

Latest Report: Sep 17, 2014 at 7:00 AM


Visibility: N/A

Pressure: 29.88 "Hg

Humidity: 89%

Dew point: 73 °F

Location of San AndrésLocation

Historic Weather in San Andrés — Graph

°F

San Andrés temperature yesterday

Maximum temperature yesterday: 84 °F (at 10:00 AM)
Minimum temperature yesterday: 77 °F (at 12:00 AM)
Average temperature yesterday: 81 °F

Past Weeks' High & Low Weather Summary

 TemperatureHumidityPressure
High90 °F (Sep 12, 2:00 PM)100% (Sep 9, 6:00 AM)29.97 "Hg (Sep 9, 6:00 AM)
Low75 °F (Sep 5, 5:00 AM)49% (Sep 12, 2:00 PM)29.71 "Hg (Sep 12, 2:00 PM)
Average82 °F87%29.83 "Hg
* Reported Sep 2 6:00 AM — Sep 17 6:00 AM, San Andrés, Weather by CustomWeather, © 2014

Note: Actual official high and low records may vary slightly from our data, if they occured in-between our weather recording intervals... More about our weather records

Advertising

San Andrés weather history for previous 24 hours

 ConditionsComfort  
Time TempWeatherWind HumidityBarometerVisibility
6:00 AM
Sep 17
79 °FThunderstorms. Mostly cloudy.7 mph94%29.89 "HgN/A
5:00 AM81 °FThunderstorms. Overcast.2 mph89%29.87 "HgN/A
4:00 AM81 °FThunderstorms. Overcast.3 mph89%29.87 "HgN/A
3:00 AM82 °FOvercast.7 mph79%29.86 "HgN/A
2:00 AM82 °FThunderstorms. Overcast.6 mph84%29.86 "HgN/A
1:00 AM82 °FOvercast.6 mph84%29.88 "HgN/A
12:00 AM82 °FOvercast.6 mph84%29.90 "HgN/A
11:00 PM
Sep 16
82 °FMostly cloudy.5 mph84%29.91 "HgN/A
10:00 PM81 °FOvercast.2 mph94%29.91 "HgN/A
9:00 PM81 °FMostly cloudy.5 mph94%29.89 "HgN/A
7:00 PM82 °FPassing clouds.6 mph79%29.86 "HgN/A
6:00 PM82 °FBroken clouds.6 mph84%29.85 "HgN/A
5:00 PM81 °FOvercast.9 mph89%29.85 "HgN/A
4:00 PM82 °FPartly sunny.8 mph84%29.86 "HgN/A
3:00 PM82 °FPartly sunny.8 mph79%29.85 "HgN/A
2:00 PM82 °FPartly sunny.7 mph79%29.86 "HgN/A
1:00 PM82 °FScattered clouds.9 mph79%29.90 "HgN/A
12:00 PM81 °FScattered clouds.12 mph89%29.96 "Hg5 mi
11:00 AM84 °FPartly sunny.7 mph79%29.97 "HgN/A
10:00 AM84 °FPartly sunny.5 mph79%29.97 "HgN/A
9:00 AM81 °FPartly sunny.5 mph84%29.95 "HgN/A
8:00 AM81 °FPartly sunny.7 mph89%29.93 "HgN/A
7:00 AM79 °FPartly sunny.8 mph89%29.92 "HgN/A
Weather by CustomWeather, © 2014

See weather overviewHow to use our weather pages